This is the latest recevied weather packets stored in our database for station/object N2UFM. If no packets are shown the sender has not sent any weather packets the latest 10 day(s).
| Time | Temp. | Humidity | Pressure | Rain* | Wind** | Luminosity | Snow |
|---|---|---|---|---|---|---|---|
| 1778283114 | 17.22° C | 50% | 1012.8 hPa | 0 mm | - | - | - |
| 1778282814 | 17.22° C | 50% | 1012.7 hPa | 0 mm | - | - | - |
| 1778282514 | 17.22° C | 49% | 1012.7 hPa | 0 mm | - | - | - |
| 1778282214 | 17.78° C | 48% | 1012.5 hPa | 0 mm | - | - | - |
| 1778281914 | 17.78° C | 48% | 1012.6 hPa | 0 mm | - | - | - |
| 1778281614 | 17.78° C | 48% | 1012.5 hPa | 0 mm | - | - | - |
| 1778281314 | 17.78° C | 48% | 1012.7 hPa | 0 mm | - | - | - |
| 1778281013 | 17.78° C | 48% | 1012.6 hPa | 0 mm | - | - | - |
| 1778280713 | 17.78° C | 47% | 1012.4 hPa | 0 mm | - | - | - |
| 1778280413 | 17.78° C | 47% | 1012.4 hPa | 0 mm | - | - | - |
| 1778280113 | 18.33° C | 47% | 1012.4 hPa | 0 mm | - | - | - |
| 1778279813 | 18.33° C | 46% | 1012.4 hPa | 0 mm | - | - | - |
| 1778279512 | 18.33° C | 45% | 1012.4 hPa | 0 mm | - | - | - |
| 1778279212 | 18.33° C | 45% | 1012.4 hPa | 0 mm | - | - | - |
| 1778278912 | 18.33° C | 44% | 1012.4 hPa | 0 mm | - | - | - |
| 1778278612 | 18.89° C | 44% | 1012.5 hPa | 0 mm | - | - | - |
| 1778278312 | 19.44° C | 43% | 1012.4 hPa | 0 mm | - | - | - |
| 1778278012 | 20° C | 42% | 1012.5 hPa | 0 mm | - | - | - |
| 1778277711 | 20° C | 41% | 1012.4 hPa | 0 mm | - | - | - |
| 1778277411 | 19.44° C | 42% | 1012.4 hPa | 0 mm | - | - | - |
| 1778277111 | 19.44° C | 43% | 1012.5 hPa | 0 mm | - | - | - |
| 1778276811 | 19.44° C | 42% | 1012.4 hPa | 0 mm | - | - | - |
| 1778276511 | 19.44° C | 41% | 1012.5 hPa | 0 mm | - | - | - |
| 1778276211 | 19.44° C | 41% | 1012.5 hPa | 0 mm | - | - | - |
| 1778275911 | 19.44° C | 41% | 1012.5 hPa | 0 mm | - | - | - |
* Rain latest hour (hover to see other rain measurements)
** Current wind speed in m/s (hover to see current wind gust speed)